Location: Unspecified
(49.2170°N, 0.0000°E)
Time: 14:35:11
(UTC+00:00)

SR - Pass Details

Date: 22 January 2021
Orbit: 573 x 882 km, 66.7° (Epoch: 05 March)

Event Time Altitude Azimuth Distance (km) Brightness Sun altitude
Exits shadow 07:05:34 - 262° (W) 2,734 ? -6.3°
Reaches altitude 10° 07:07:17 10° 272° (W) 2,191 ? -6.1°
Maximum altitude 07:11:24 25° 328° (NNW) 1,502 ? -5.5°
Drops below altitude 10° 07:15:49 10° 22° (NNE) 2,369 ? -4.8°
Sets 07:18:47 0° 36° (NE) 3,355 ? -4.4°
